Home > Weather > Mattersburg > Past weeks

Flag for Austria Past Weather in Mattersburg, Burgenland, Austria — Yesterday and Last 2 Weeks

Now
79 °F

Warm.


Feels Like: 82 °F
Forecast: 68 / 87 °F
Wind: 2 mph from North

Location: Eisenstadt

Current Time: Jun 24, 2016 at 10:21:37 PM

Latest Report: Jun 24, 2016 at 9:00 PM


Visibility: N/A

Pressure: 29.95 "Hg

Humidity: 75%

Dew Point: 71 °F

Location of MattersburgLocation

Past Weather in Mattersburg — Graph

°F

Mattersburg Temperature Yesterday

Maximum temperature yesterday: 88 °F (at 5:00 PM)
Minimum temperature yesterday: 65 °F (at 5:00 AM)
Average temperature yesterday: 76 °F

High & Low Weather Summary for the Past Weeks

 TemperatureHumidityPressure
High91 °F (Jun 24, 4:00 PM)94% (Jun 21, 6:00 AM)30.26 "Hg (Jun 21, 6:00 AM)
Low55 °F (Jun 21, 6:00 AM)34% (Jun 23, 5:00 PM)29.47 "Hg (Jun 17, 5:00 AM)
Average68 °F70%29.89 "Hg
* Reported Jun 9 8:00 PM — Jun 24 8:00 PM, Mattersburg, Weather by CustomWeather, © 2016

Note: Actual official high and low records may vary slightly from our data, if they occured in-between our weather recording intervals... More about our weather records

Advertising

Mattersburg Weather History for the Previous 24 Hours

Scroll right to see more
 ConditionsComfort  
Time TempWeatherWind HumidityBarometerVisibility
8:00 PM
Fri, Jun 24
87 °FSunny.3 mph55%29.94 "Hg14 mi
7:00 PM89 °FSunny.5 mph49%29.94 "Hg14 mi
6:00 PM90 °FHot.6 mph44%29.94 "HgN/A
5:00 PM90 °FSunny.6 mph45%29.96 "Hg14 mi
4:00 PM91 °FHot.6 mph43%29.98 "HgN/A
3:00 PM90 °FHot.7 mph42%30.00 "HgN/A
2:00 PM90 °FSunny.7 mph43%30.01 "Hg14 mi
1:00 PM90 °FHot.6 mph45%30.02 "HgN/A
12:00 PM88 °FHot.6 mph47%30.04 "HgN/A
11:00 AM86 °FSunny.7 mph52%30.05 "Hg12 mi
10:00 AM82 °FWarm.6 mph62%30.05 "HgN/A
9:00 AM78 °FWarm.5 mph69%30.07 "HgN/A
8:00 AM74 °FSunny.2 mph76%30.08 "Hg12 mi
7:00 AM72 °FSunny.3 mph81%30.08 "Hg12 mi
6:00 AM68 °FSunny.2 mph91%30.09 "Hg12 mi
5:00 AM67 °FSunny.2 mph91%30.10 "Hg12 mi
4:00 AM67 °FClear.2 mph89%30.10 "Hg12 mi
3:00 AM68 °FMild.3 mph88%30.10 "HgN/A
2:00 AM68 °FClear.3 mph87%30.11 "Hg12 mi
1:00 AM69 °FMild.3 mph84%30.13 "HgN/A
12:00 AM70 °FMild.2 mph81%30.14 "HgN/A
11:00 PM
Thu, Jun 23
70 °FClear.5 mph81%30.14 "Hg14 mi
10:00 PM71 °FMild.5 mph79%30.15 "HgN/A
Weather by CustomWeather, © 2016

See weather overviewHow to use our weather pages